Location: Emory University Observatory
(33.7903°N, 84.3267°W)
Time: 01:55:49
(UTC-04:00)

N. Korean satellite - Pass Details

Date: 16 October 2017
Orbit: 459 x 517 km, 97.2° (Epoch: 17 October)

Event Time Altitude Azimuth Distance (km) Brightness Sun altitude
Rises 20:08:01 0° 183° (S) 2,546 10.3 -14.5°
Reaches altitude 10° 20:10:11 10° 191° (SSW) 1,659 9.4 -14.9°
Maximum altitude 20:13:31 38° 261° (W) 742 8.1 -15.6°
Drops below altitude 10° 20:16:50 10° 331° (NNW) 1,641 9.6 -16.3°
Sets 20:18:59 0° 340° (NNW) 2,514 10.5 -16.8°
